Gainesville, FL

10:19 PM EDT on September 25, 2017 (GMT -0400)
Gainesville Regional

Weather History for KGNV - January, 2014

Change the Weather History Date:

Thursday, January 2, 2014

  Actual Average Record
Temperature  
Mean Temperature 59 °F 54 °F  
Max Temperature 65 °F 66 °F 86 °F (1975)
Min Temperature 52 °F 42 °F 23 °F (1918)
Degree Days  
Heating Degree Days 6 11  
Month to date heating degree days 16 22  
Since 1 July heating degree days 281 479  
Cooling Degree Days 0 0  
Month to date cooling degree days 0 0  
Year to date cooling degree days 0 0  
Growing Degree Days 10 (Base 50)    
Moisture  
Dew Point 58 °F    
Average Humidity 92    
Maximum Humidity 100    
Minimum Humidity 83    
Precipitation  
Precipitation 1.90 in 0.09 in 2.48 in (2006)
Month to date precipitation 2.72 0.17  
Year to date precipitation 2.72 0.17  
Snow  
Snow 0.00 in 0.00 in 0.00 in ()
Month to date snowfall 0.0 0.0  
Since 1 July snowfall 0.0 0.0  
Snow Depth 0.00 in    
Sea Level Pressure  
Sea Level Pressure 29.95 in    
Wind  
Wind Speed 6 mph (NNW)    
Max Wind Speed 23 mph    
Max Gust Speed 32 mph    
Visibility 6 miles    
Events Rain    
T = Trace of Precipitation, MM = Missing Value Source: NWS Daily Summary

Daily Weather History Graph

Daily Weather History Graph

Search for Another Location

Airport or City:

Trip Planner

Search our weather history database for the weather conditions in past years. The results will help you decide how hot, cold, wet, or windy it might be!

Date:

Astronomy

Jan. 02, 2014 Rise Set
Actual Time 7:24 AM EST 5:41 PM EST
Civil Twilight 6:58 AM EST 6:08 PM EST
Nautical Twilight 6:28 AM EST 6:37 PM EST
Astronomical Twilight 5:59 AM EST 7:06 PM EST
Moon 8:12 AM EST (1/2) 7:27 PM EST (1/2)
Length of Visible Light 11h 09m
Length of Day
10h 17m
New Moon, 2% of the Moon is Illuminated
Jan 2
New Moon
Jan 7
First Quarter
Jan 15
Full
Jan 24
Last Quarter
Jan 30
New

Hourly Weather History & Observations

Time (EST) Temp. Dew Point Humidity Pressure Visibility Wind Dir Wind Speed Gust Speed Precip Events Conditions
12:53 AM 57.9 °F 57.0 °F 97% 30.06 in 10.0 mi East 4.6 mph - 0.01 in Rain Light Rain
1:28 AM 57.9 °F 57.9 °F 100% 30.05 in 10.0 mi East 5.8 mph - 0.00 in   Overcast
1:53 AM 57.9 °F 57.9 °F 100% 30.04 in 8.0 mi ESE 5.8 mph - 0.00 in   Overcast
2:24 AM 57.9 °F 57.9 °F 100% 30.03 in 1.8 mi ESE 3.5 mph - N/A   Overcast
2:53 AM 57.9 °F 57.9 °F 100% 30.02 in 1.2 mi East 3.5 mph - 0.00 in Rain Light Rain
3:34 AM 59.0 °F 57.9 °F 96% 30.00 in 2.5 mi ENE 3.5 mph - 0.01 in Rain Light Rain
3:44 AM 57.9 °F 57.9 °F 100% 29.99 in 4.0 mi Calm Calm - 0.01 in Rain Light Rain
3:53 AM 57.9 °F 57.9 °F 100% 29.99 in 6.0 mi Calm Calm - 0.01 in Rain Light Rain
4:37 AM 59.0 °F 57.9 °F 96% 29.98 in 1.8 mi Calm Calm - 0.00 in   Overcast
4:53 AM 59.0 °F 59.0 °F 100% 29.98 in 1.0 mi Calm Calm - 0.00 in Rain Light Rain
5:10 AM 59.0 °F 57.9 °F 96% 29.97 in 2.5 mi Calm Calm - 0.00 in   Overcast
5:19 AM 59.0 °F 57.9 °F 96% 29.97 in 5.0 mi ENE 3.5 mph - 0.00 in   Overcast
5:53 AM 59.0 °F 57.9 °F 96% 29.96 in 7.0 mi North 4.6 mph - 0.01 in Rain Light Rain
6:03 AM 59.0 °F 57.9 °F 96% 29.96 in 1.8 mi North 4.6 mph - 0.06 in Rain Heavy Rain
6:10 AM 59.0 °F 57.9 °F 96% 29.96 in 3.0 mi North 4.6 mph - 0.07 in Rain Light Rain
6:16 AM 59.0 °F 57.9 °F 96% 29.95 in 1.8 mi North 4.6 mph - 0.07 in Rain Light Rain
6:34 AM 57.9 °F 57.9 °F 100% 29.96 in 2.0 mi North 4.6 mph - 0.11 in Rain Heavy Rain
6:49 AM 57.2 °F 57.2 °F 100% 29.97 in 2.0 mi NW 4.6 mph - 0.23 in Rain Heavy Rain
6:53 AM 57.9 °F 57.9 °F 100% 29.96 in 1.0 mi NW 6.9 mph - 0.31 in Rain Heavy Rain
7:00 AM 57.9 °F 57.9 °F 100% 29.96 in 0.8 mi NW 6.9 mph - 0.27 in Rain Heavy Rain
7:23 AM 57.9 °F 57.0 °F 97% 29.96 in 1.0 mi North 5.8 mph - 1.03 in Rain Heavy Rain
7:33 AM 57.9 °F 57.0 °F 97% 29.97 in 2.0 mi NNW 4.6 mph - 1.15 in Rain Heavy Rain
7:42 AM 57.9 °F 57.0 °F 97% 29.97 in 10.0 mi WNW 4.6 mph - 1.15 in Rain Light Rain
7:49 AM 57.2 °F 57.2 °F 100% 29.98 in 10.0 mi NW 5.8 mph - 1.15 in   Overcast
7:53 AM 57.9 °F 57.0 °F 97% 29.99 in 9.0 mi NW 6.9 mph - 1.15 in Rain Light Rain
8:11 AM 57.0 °F 57.0 °F 100% 29.99 in 2.0 mi NNW 9.2 mph - 0.02 in Rain Rain
8:18 AM 57.0 °F 57.0 °F 100% 29.99 in 5.0 mi NNW 8.1 mph - 0.02 in Rain Light Rain
8:53 AM 57.0 °F 57.0 °F 100% 29.99 in 10.0 mi NNW 9.2 mph - 0.02 in   Overcast
9:05 AM 57.0 °F 55.9 °F 96% 29.98 in 5.0 mi East 5.8 mph - 0.01 in Rain Light Rain
9:17 AM 57.0 °F 57.0 °F 100% 29.99 in 1.5 mi Calm Calm - 0.05 in Rain Heavy Rain
9:29 AM 57.0 °F 57.0 °F 100% 29.98 in 1.2 mi ESE 4.6 mph - 0.18 in Rain Heavy Rain
9:38 AM 57.0 °F 57.0 °F 100% 29.98 in 3.0 mi SE 5.8 mph - 0.20 in Rain Rain
9:53 AM 57.9 °F 57.9 °F 100% 29.98 in 10.0 mi ESE 4.6 mph - 0.21 in Rain Light Rain
9:57 AM 57.9 °F 57.9 °F 100% 29.98 in 10.0 mi ESE 4.6 mph - 0.00 in   Overcast
10:51 AM 59.0 °F 59.0 °F 100% 29.95 in 1.8 mi Calm Calm - 0.02 in Rain Heavy Rain
10:53 AM 59.0 °F 59.0 °F 100% 29.94 in 1.5 mi Calm Calm - 0.04 in Rain Heavy Rain
11:03 AM 59.0 °F 57.9 °F 96% 29.95 in 3.0 mi South 3.5 mph - 0.03 in Rain Light Rain
11:20 AM 59.0 °F 57.9 °F 96% 29.94 in 5.0 mi South 5.8 mph - 0.05 in Rain Light Rain
11:28 AM 59.0 °F 57.9 °F 96% 29.93 in 3.0 mi SSE 4.6 mph - 0.06 in Rain Rain
11:46 AM 60.1 °F 59.0 °F 96% 29.92 in 5.0 mi SE 4.6 mph - 0.07 in Rain Light Rain
11:53 AM 60.1 °F 59.0 °F 96% 29.91 in 8.0 mi Calm Calm - 0.08 in Rain Light Rain
12:53 PM 61.0 °F 61.0 °F 100% 29.87 in 4.0 mi South 3.5 mph - 0.04 in Rain Light Rain
1:01 PM 62.1 °F 61.0 °F 96% 29.87 in 10.0 mi South 3.5 mph - 0.00 in Rain Light Rain
1:53 PM 64.0 °F 63.0 °F 96% 29.82 in 10.0 mi Calm Calm - 0.00 in   Overcast
2:53 PM 64.9 °F 63.0 °F 93% 29.83 in 5.0 mi West 5.8 mph - 0.00 in Rain Light Rain
3:53 PM 64.9 °F 63.0 °F 93% 29.84 in 10.0 mi WSW 6.9 mph - 0.00 in Rain Light Rain
4:53 PM 64.9 °F 63.0 °F 93% 29.85 in 10.0 mi WSW 8.1 mph - 0.00 in Rain Light Rain
5:53 PM 64.0 °F 63.0 °F 96% 29.81 in 10.0 mi SSW 5.8 mph - 0.01 in Rain Light Rain
6:53 PM 64.0 °F 63.0 °F 96% 29.83 in 10.0 mi WSW 10.4 mph - 0.00 in   Overcast
7:53 PM 64.0 °F 63.0 °F 96% 29.84 in 10.0 mi WSW 11.5 mph - N/A   Overcast
8:27 PM 60.1 °F 59.0 °F 96% 29.88 in 5.0 mi NNW 12.7 mph 23.0 mph 0.01 in Rain Light Rain
8:37 PM 60.1 °F 57.0 °F 90% 29.87 in 10.0 mi NW 12.7 mph 27.6 mph 0.01 in Rain Light Rain
8:53 PM 57.9 °F 55.0 °F 90% 29.90 in 9.0 mi NW 16.1 mph 27.6 mph 0.01 in Rain Light Rain
9:01 PM 57.9 °F 54.0 °F 87% 29.91 in 10.0 mi NW 17.3 mph 25.3 mph 0.00 in Rain Light Rain
9:11 PM 57.0 °F 52.0 °F 83% 29.91 in 10.0 mi NW 11.5 mph 23.0 mph 0.00 in   Overcast
9:53 PM 55.9 °F 51.1 °F 84% 29.93 in 10.0 mi NW 11.5 mph - 0.00 in   Overcast
10:22 PM 55.0 °F 51.1 °F 86% 29.94 in 10.0 mi NW 11.5 mph 19.6 mph N/A   Overcast
10:53 PM 55.0 °F 50.0 °F 83% 29.96 in 10.0 mi NW 15.0 mph 21.9 mph N/A   Mostly Cloudy
11:53 PM 52.0 °F 46.0 °F 80% 30.00 in 10.0 mi NW 13.8 mph 23.0 mph N/A   Mostly Cloudy